Flag for Germany Weather past 2 weeks in Gronau (Westfalen), North Rhine-Westphalia, Germany

Now
57 °F

Cool.


Feels Like: 55 °F
Forecast: 41 / 66 °F
Wind: 8 mph from North

Location: Rheine-Bentlage

Current Time: May 23, 2015 at 6:28:38 PM

Latest Report: May 23, 2015 at 5:20 PM


Visibility: N/A

Pressure: 30.15 "Hg

Humidity: 67%

Dew point: 46 °F

Location of Gronau (Westfalen)Location

Historic Weather in Gronau (Westfalen) — Graph

°F

Gronau (Westfalen) temperature yesterday

Maximum temperature yesterday: 66 °F (at 2:20 PM)
Minimum temperature yesterday: 43 °F (at 3:20 AM)
Average temperature yesterday: 56 °F

Past Weeks' High & Low Weather Summary

 TemperatureHumidityPressure
High77 °F (May 11, 4:20 PM)100% (May 16, 5:20 AM)30.33 "Hg (May 16, 5:20 AM)
Low37 °F (May 16, 3:20 AM)36% (May 11, 4:20 PM)29.59 "Hg (May 18, 7:20 PM)
Average54 °F69%30.06 "Hg
* Reported May 8 5:20 PM — May 23 5:20 PM, Gronau (Westfalen), Weather by CustomWeather, © 2015

Note: Actual official high and low records may vary slightly from our data, if they occured in-between our weather recording intervals... More about our weather records

Advertising

Gronau (Westfalen) weather history for previous 24 hours

 ConditionsComfort  
Time TempWeatherWind HumidityBarometerVisibility
5:20 PM
Sat, May 23
57 °FCool.8 mph67%30.15 "HgN/A
4:20 PM55 °FCool.7 mph77%30.18 "HgN/A
3:20 PM54 °FCool.9 mph82%30.18 "HgN/A
2:20 PM54 °FCool.9 mph88%30.18 "HgN/A
1:20 PM55 °FCool.10 mph88%30.18 "HgN/A
12:20 PM55 °FCool.7 mph88%30.18 "HgN/A
11:20 AM57 °FCool.8 mph77%30.18 "HgN/A
10:20 AM59 °FCool.7 mph68%30.18 "HgN/A
9:20 AM59 °FCool.2 mph63%30.15 "HgN/A
8:20 AM57 °FCool.3 mph77%30.15 "HgN/A
7:20 AM55 °FCool.3 mph82%30.15 "HgN/A
6:20 AM54 °FCool.2 mph82%30.15 "HgN/A
5:20 AM54 °FCool.1 mph82%30.15 "HgN/A
4:20 AM55 °FCool.2 mph77%30.15 "HgN/A
3:20 AM55 °FCool.2 mph82%30.15 "HgN/A
2:20 AM55 °FCool.2 mph82%30.18 "HgN/A
1:20 AM55 °FCool.1 mph82%30.18 "HgN/A
12:20 AM57 °FCool.2 mph72%30.21 "HgN/A
11:20 PM
Fri, May 22
59 °FCool.5 mph68%30.21 "HgN/A
10:20 PM61 °FCool.3 mph68%30.18 "HgN/A
9:20 PM61 °FCool.2 mph63%30.18 "HgN/A
8:20 PM63 °FMild.2 mph59%30.18 "HgN/A
7:20 PM64 °FMild.5 mph52%30.18 "HgN/A
6:20 PM66 °FMild.7 mph46%30.18 "HgN/A
Weather by CustomWeather, © 2015

See weather overviewHow to use our weather pages